Regional Weather Roundup
Issued by NWS

Home | Current Version | Previous Version | Graphics & Text | Print | Product List | Glossary On
Versions: 1 2 3 4 5 6 7 8 9 10 11 12 13 14 15 16 17 18 19 20 21 22 23 24 25 26 27 28 29 30 31 32 33 34 35 36 37 38 39 40 41 42 43 44 45 46 47 48 49 50
000
ASUS43 KOAX 181402
RWRNE

WEATHER ROUNDUP FOR NEBRASKA
NATIONAL WEATHER SERVICE OMAHA NE
800 AM CST THU JAN 18 2018

NOTES: SATELLITE DATA IS BEING USED TO AUGMENT CLOUD COVER ABOVE
       12000 FEET.
       "FAIR" INDICATES FEW OR NO CLOUDS BELOW 12,000 FEET WITH NO
       SIGNIFICANT WEATHER AND/OR OBSTRUCTIONS TO VISIBILITY.


NEZ001>004-019>022-054>056-181500-
NEBRASKA PANHANDLE

CITY           SKY/WX    TMP DP  RH WIND       PRES   REMARKS
SCOTTSBLUFF    PTCLDY    23  18  81 N8        30.02R WCI  14
ALLIANCE       CLOUDY    21  18  88 W15       29.99R WCI   8
CHADRON        MOCLDY    25  20  81 W10       29.99R WCI  15
GORDON         FAIR      29  20  70 W9        29.94S WCI  20
SIDNEY         PTCLDY    27  19  72 W10       30.04S WCI  17
$$

NEZ057>060-069>072-079>082-181500-
SOUTHWEST NEBRASKA

CITY           SKY/WX    TMP DP  RH WIND       PRES   REMARKS
NORTH PLATTE   PTCLDY    15  11  83 NW3       30.02F
IMPERIAL       CLEAR     24  17  74 W10       30.04F WCI  14
LEXINGTON      CLEAR     15  11  86 W5        30.03F WCI   7
MCCOOK         PTCLDY    17  14  88 W9        30.06F WCI   6
OGALLALA       CLEAR     21  17  85 SW5       30.03S WCI  14
$$

NEZ005>010-023>029-035>040-094-181500-
NORTH CENTRAL NEBRASKA

CITY           SKY/WX    TMP DP  RH WIND       PRES   REMARKS
VALENTINE      CLEAR     21  17  84 S7        29.92F WCI  12
AINSWORTH      PTCLDY    28  22  79 SW10      29.92S WCI  18
BROKEN BOW     PTCLDY    24  15  68 VRB3      29.98F
O`NEILL        CLEAR     24  19  81 S5        29.93F WCI  18
ORD            CLEAR     11   9  92 CALM      29.99
THEDFORD       PTCLDY    29  22  73 W6        29.96F WCI  23
$$

NEZ041-046>049-061>064-073>077-083>087-181500-
SOUTH CENTRAL NEBRASKA

CITY           SKY/WX    TMP DP  RH WIND       PRES   REMARKS
GRAND ISLAND   CLOUDY    15  11  83 SW8       30.05S WCI   4
AURORA         CLOUDY    15  10  80 SW8       30.05F WCI   4
HASTINGS       CLOUDY    13   7  77 SW10      30.05F WCI   0
HEBRON         CLOUDY    17   9  69 SW5       30.12F WCI  10
HOLDREGE       CLOUDY    22  17  81 W5        30.04F WCI  16
KEARNEY        CLOUDY    15  11  83 W6        30.05F WCI   6
YORK           CLOUDY    12   9  85 S7        30.06F WCI   2
$$

NEZ011>018-030>034-042>045-181500-
NORTHEAST NEBRASKA

CITY           SKY/WX    TMP DP  RH WIND       PRES   REMARKS
NORFOLK        CLOUDY    23  16  74 SW14      29.97F WCI  11
ALBION         CLOUDY    15  12  87 CALM      30.01F
BLAIR          CLOUDY    20  11  68 S13G20    30.03F WCI   8
COLUMBUS       CLOUDY    14  10  84 S5        30.05F WCI   6
FREMONT        CLOUDY    19  11  70 S13G18    30.04F WCI   6
TEKAMAH        PTCLDY    19  11  70 S14       30.04F WCI   6
WAYNE          CLOUDY    18  16  94 S6        29.97F WCI   9
$$

NEZ050>053-065>068-078-088>093-181500-
SOUTHEAST NEBRASKA

CITY           SKY/WX    TMP DP  RH WIND       PRES   REMARKS
LINCOLN        CLOUDY    17   8  67 S13       30.11F WCI   4
OMAHA EPPLEY   CLOUDY    15   8  73 SE15      30.08F WCI   0
BEATRICE       CLOUDY    15   7  72 S7        30.14F WCI   5
FALLS CITY     CLOUDY    13   6  74 S3        30.19F
NEBRASKA CITY  CLOUDY    19  10  68 SW9       30.14F WCI   9
PLATTSMOUTH    CLOUDY    16   9  74 S13       30.10F WCI   2
$$

NEZ044-045-051>053-067-181500-
OMAHA AREA

CITY           SKY/WX    TMP DP  RH WIND       PRES   REMARKS
OMAHA EPPLEY   CLOUDY    15   8  73 SE15      30.08F WCI   0
BLAIR          CLOUDY    20  11  68 S13G20    30.03F WCI   8
FREMONT        CLOUDY    19  11  70 S13G18    30.04F WCI   6
MILLARD        CLOUDY    19  10  68 SE5       30.08F WCI  12
OFFUTT AFB     CLOUDY    10   5  81 SE7       30.09F WCI  -1
PLATTSMOUTH    CLOUDY    16   9  74 S13       30.10F WCI   2
WAHOO          FAIR      18  10  69 S9        30.06F WCI   7
$$




USA.gov is the U.S. government's official web portal to all federal, state and local government web resources and services.